Regional Weather Roundup
Issued by NWS Upton, NY

Current Version | Previous Version | Text Only | Print | Product List | Glossary On
Versions: 1 2 3 4 5 6 7 8 9 10 11 12 13 14 15 16 17 18 19 20 21 22 23 24 25 26 27 28 29 30 31 32 33 34 35 36 37 38 39 40 41 42 43 44 45 46 47 48 49 50
000
ASUS41 KOKX 240405
RWROKX

Regional Weather Roundup
National Weather Service New York NY
1100 PM EST FRI FEB 23 2018

Note: "FAIR" indicates few or no clouds below 12,000 feet with no
significant weather and/or obstructions to visibility.

NYZ071-072-176-178-NJZ106-104-240500-
New York City Metro Area

CITY           SKY/WX    TMP DP  RH WIND       PRES   REMARKS
Central Park   CLOUDY    41  39  93 W10G18    30.21
Bronx Bot Gard   N/A     41  37  87 W7        30.19S
Bronx Lehman C   N/A     41  39  93 W5          N/A
LaGuardia Arpt CLOUDY    43  39  86 SW12      30.19F
Queens College   N/A     41  39  93 W10         N/A
Kennedy Intl   CLOUDY    40  40 100 SW12      30.21F FOG     WCI  33
Breezy Point     N/A     37 N/A N/A SW6         N/A  WCI  33
Brooklyn Coll    N/A     41  39  93 SW9         N/A
Staten Island    N/A     39  39 100 W7          N/A  WCI  34
Newark/Liberty CLOUDY    41  39  93 SW10      30.20F FOG
Teterboro      CLOUDY    41  39  93 W6        30.19F FOG
$$

NYZ177-179-078>081-240500-
Long Island New York

CITY           SKY/WX    TMP DP  RH WIND       PRES   REMARKS
Jones Beach      N/A     37 N/A N/A W7          N/A  WCI  32
Wantagh          N/A     39  39 100 SW7         N/A  WCI  34
Hempstead        N/A     41  39  93 SW3       30.23F
Matinecock Pt    N/A     39 N/A N/A SW10        N/A  WCI  32
Farmingdale    CLOUDY    40  40 100 SW7       30.19F FOG
MacArthur/ISP  FOG       39  39 100 W7        30.18F VSB 1/2 WCI  34
Stony Brook U    N/A     37  36  93 W1          N/A
Shirley        FOG       40  40 100 W6        30.19F VSB 3/4
Mt Sinai Harb    N/A    N/A N/A N/A W2          N/A
Westhampton    FOG       39  39 100 NW5       30.19F VSB 1
East Hampton   CLOUDY    37  37  99 NW7       30.17F FOG     WCI  32
Southold         N/A     37  36  93 NW5         N/A  WCI  34
Montauk          N/A     39  38  96 NW7       30.18F WCI  34
$$

NYZ052-065-067-240500-
Hudson Valley

CITY           SKY/WX    TMP DP  RH WIND       PRES   REMARKS
White Plains   FOG       38  38 100 VRB5      30.17F VSB 1/4 WCI  34
Larchmont Harb   N/A     37 N/A N/A S7          N/A  WCI  32
Croton On Huds   N/A     37 N/A N/A SE3         N/A
Somers           N/A     36  36 100 W2          N/A
Brewster         N/A     36  34  93 CALM        N/A
Newburgh       FOG       36  36 100 CALM      30.18F VSB 1/2
Montgomery     FOG       35  34  96 CALM      30.15F VSB 1/2
Otisville        N/A     36  36 100 SW5         N/A  WCI  32
Warwick          N/A     37  37 100 W13         N/A  WCI  29
Suffern          N/A     37  37 100 SW3         N/A
Poughkeepsie   CLOUDY    36  35  96 CALM      30.17F FOG
Albany         CLOUDY    36  32  85 S13       30.11F WCI  27
$$

NJZ001-105-106-008-010-013-015-019>022-104-240500-
New Jersey

CITY           SKY/WX    TMP DP  RH WIND       PRES   REMARKS
Newark/Liberty CLOUDY    41  39  93 SW10      30.20F FOG
Teterboro      CLOUDY    41  39  93 W6        30.19F FOG
Caldwell       CLOUDY    39  39 100 W5        30.21F
Somerville     CLOUDY    39  39 100 CALM      30.21F FOG
Linden         CLOUDY    40  39  93 CALM      30.23F FOG
Perth Amboy      N/A     39 N/A N/A W10         N/A  WCI  32
Sussex         CLOUDY    38  37  97 SW8       30.18F FOG     WCI  32
Andover          N/A     37  37 100 VRB6      30.18F WCI  32
Trenton        FOG       43  42  97 W3        30.23F VSB 1/2
Millville      CLOUDY    44  44 100 SW3       30.26F FOG
Atlantic City  FOG       46  46 100 SW6       30.25F VSB 1/2
Wrightstown    CLOUDY    43  43  99 W6        30.21  FOG
Toms River     CLOUDY    42  42 100 W5        30.24F FOG
Belmar         CLOUDY    41  40  96 W5        30.24S FOG
$$

PAZ047>061-062-071-240500-
Eastern Pennsylvania

CITY           SKY/WX    TMP DP  RH WIND       PRES   REMARKS
Philadelphia   CLOUDY    44  43  96 SW9       30.25F FOG
Allentown      FOG       41  39  93 SW3       30.21F VSB 1/2
Scranton       CLOUDY    39  38  96 W7        30.18F WCI  34
$$

CTZ002-004>006-009-010-012-RIZ004-006-007-MAZ004-011-015-240500-
Southern New England

 In CT

CITY           SKY/WX    TMP DP  RH WIND       PRES   REMARKS
Bradley Intl   MOCLDY    36  36 100 S7        30.14F WCI  30
Hartford       CLOUDY    37  37 100 S6        30.16F FOG     WCI  32
Danbury        FOG       36  36 100 SW5       30.17F VSB 1   WCI  32
Wtrbury/Oxford FOG       35  34  96 VRB5      30.15F VSB 1/4 WCI  31
Norwalk Harbor   N/A     36 N/A N/A SW7         N/A  WCI  30
Bridgeport     CLOUDY    38  37  97 W6        30.19F FOG     WCI  33
Meriden        CLOUDY    36  36 100 CALM      30.17F
New Haven      CLOUDY    38  37  97 CALM      30.17F FOG
Chester        CLOUDY    37  37 100 W3        30.15F FOG
Groton         CLOUDY    39  37  92 NW6       30.16F FOG     WCI  35
Willimantic    CLOUDY    37  35  92 SW3       30.16F FOG

 In RI

CITY           SKY/WX    TMP DP  RH WIND       PRES   REMARKS
Providence     CLOUDY    38  37  97 W6        30.16F FOG     WCI  33
Block Island   LGT RAIN  39  39 100 W7        30.16F VSB 3/4 WCI  34
Westerly       CLOUDY    39  39 100 W5        30.17F FOG

In MA

CITY           SKY/WX    TMP DP  RH WIND       PRES   REMARKS
Boston         CLOUDY    37  35  92 SW10      30.13F WCI  30
Worcester      CLOUDY    32  31  96 SW17      30.07F FOG     WCI  21
Westfield      CLOUDY    35  35 100 S6        30.12F WCI  30
Provincetown   LGT RAIN  38  37  97 W8        30.12F FOG     WCI  32
Nantucket      FOG       44  44 100 SW10      30.10F VSB 3/4
$$

ANZ330-335-338-340-345-350-353-355-240500-
Coastal Marine Observations


STATION/POSITION TIME  SKY/WX   TEMP    WIND        PRES    VSBY  WAVE
                                AIR SEA DIR/SP/G                  HT/PER
                 (UTC)          (F)     (DEG/KT/KT) (MB)    (MI)  (FT/S)
NY Harb Entrance 0350            40 39  270/  8/ 12 1023.5          4/ 6
20 S Fire Island 0350            41 42  290/  8/ 12 1022.9          4/ 7
23 SSW Montauk P 0350            41 43  270/  8/ 10 1021.5          4/ 6
15 E Barnegat Li 0330               42                N/A           4/ 6
Hudson Canyon    0350            48 46  250/ 16/ 19 1022.8          4/ 7
Kings Point      0348            41 38  250/  5/  8 1023.5
Execution Rocks  NOT AVBL
Western LI Sound NOT AVBL
Central LI Sound 0315            37     280/  6/  8   N/A           1
Robbins Reef     0348            40     260/  9/ 13 1023.6
$$


>>>>>>>>>>>>>>>>>>>>>>>>>>>> KEY <<<<<<<<<<<<<<<<<<<<<<<<<<<
>                                                          <
>     SKY/WX - Sky Condition/Present Weather               <
>     TMP    - Temperature in Fahrenheit                   <
>     DP     - Dew Point in Fahrenheit                     <
>     RH     - Relative Humidity in Percent                <
>     WIND   - Direction (from) and Speed in MPH           <
>     PRES   - Mean Sea Level Pressure (inches of Hg)      <
>     WCI    - Wind Chill Index                            <
>     VSB    - Visibility in Miles                         <
>     HX     - Heat Index                                  <
>     TC     - Temperature in Celsius                      <
>     VRB    - Varibale Wind Direction                     <
>                                                          <
>>>>>>>>>>>>>>>>>>>>>>>>>>>> KEY <<<<<<<<<<<<<<<<<<<<<<<<<<<



USA.gov is the U.S. government's official web portal to all federal, state and local government web resources and services.